This demonstration page uses our WeatherBlox Daily Observations layout. Learn more.

Left ArrowRight Arrow

Hourly Observations for June 18, 2021

Temp ( °F °C ) Dew Point ( °F °C ) Humidity (%) Winds ( mph kmh ) Pressure ( in mb ) Visibility ( mi km ) Precip ( " mm )
12:53 am 00:53 Clear 79 26.1 49 9.4 35 35 S 8 13 29.88 1012 10 16 0.00 0.00
1:53 am 01:53 Clear 75 23.9 50 10 41 41 SSE 6 9 29.88 1012 10 16 0.00 0.00
2:53 am 02:53 Clear 74 23.3 50 10 43 43 ESE 7 11 29.87 1011 10 16 0.00 0.00
3:53 am 03:53 Clear 71 21.7 50 10 47 47 E 7 11 29.86 1011 10 16 0.00 0.00
4:53 am 04:53 Clear 70 21.1 51 10.6 51 51 E 7 11 29.85 1011 10 16 0.00 0.00
5:53 am 05:53 Clear 70 21.1 53 11.7 55 55 E 6 9 29.86 1011 10 16 0.00 0.00
6:53 am 06:53 Sunny 71 21.7 54 12.2 55 55 ESE 9 15 29.86 1011 10 16 0.00 0.00
7:53 am 07:53 Sunny 73 22.8 56 13.3 55 55 ESE 10 17 29.86 1011 10 16 0.00 0.00
8:53 am 08:53 Sunny 77 25 56 13.3 48 48 SE 13 20 29.87 1012 10 16 0.00 0.00
9:53 am 09:53 Sunny 83 28.3 56 13.3 40 40 SE 13 20 29.87 1012 10 16 0.00 0.00
10:53 am 10:53 Sunny 87 30.6 51 10.6 29 29 SSE 13 20 29.85 1011 10 16 0.00 0.00
11:53 am 11:53 Sunny 90 32.2 50 10 25 25 SSE 13 20 29.85 1011 10 16 0.00 0.00
12:53 pm 12:53 Sunny 93 33.9 46 7.8 20 20 SSE 13 20 29.82 1010 10 16 0.00 0.00
1:53 pm 13:53 Sunny 93 33.9 42 5.6 17 17 SSE 6 9 29.80 1009 10 16 0.00 0.00
2:53 pm 14:53 Sunny 97 36.1 42 5.6 15 15 S 17 28 29.77 1008 10 16 0.00 0.00
3:53 pm 15:53 Sunny 98 36.7 43 6.1 15 15 SSE 16 26 29.75 1007 10 16 0.00 0.00
4:53 pm 16:53 Sunny 97 36.1 42 5.6 15 15 SE 6 9 29.73 1007 10 16 0.00 0.00
5:53 pm 17:53 Sunny 97 36.1 42 5.6 15 15 SSE 7 11 29.71 1006 10 16 0.00 0.00
6:53 pm 18:53 Sunny 97 36.1 41 5 14 14 S 17 28 29.70 1006 10 16 0.00 0.00
7:53 pm 19:53 Sunny 95 35 43 6.1 17 17 SE 16 26 29.70 1006 10 16 0.00 0.00
8:53 pm 20:53 Sunny 92 33.3 43 6.1 18 18 SE 13 20 29.71 1006 10 16 0.00 0.00
9:53 pm 21:53 Clear 88 31.1 47 8.3 24 24 SE 15 24 29.73 1007 10 16 0.00 0.00
10:53 pm 22:53 Clear 86 30 46 7.8 25 25 SE 12 19 29.76 1008 10 16 0.00 0.00
11:53 pm 23:53 Clear 83 28.3 47 8.3 28 28 SE 12 19 29.77 1008 10 16 0.00 0.00

Powered by AerisWeather